CASSIOPE

Last updated on Fri Dec 19 2025 00:03:36 GMT+0000 (Coordinated Universal Time)

1 39265U 13055A 25352.59444505 .00038155 -24002-6 50578-3 0 9997 2 39265 80.9207 283.9429 0339493 305.9509 51.0655 15.11973549640256
UTC large
Height (km)
Speed (km/s)
/
Latitude / Longitude
Inclination (degrees)
Orbital Period (minutes)
Azimuth
Elevation
Range (km)
Doppler Factor

Next 0 passes for location: London (51.5072 / 0.1276)

Sorry there are no passes over London.